Погода в Альби

Франция     43°55′38″N   2°08′53″E
темп.,
°C
ветер,
м/с
пор.,
м/с
влажн.,
%
обл.,
%
осадки,
мм/ч
давл.,
гПа
погр.,
м
21 апреля, ср
ср2123:00+8всв228794 0.0 101444
02:00+6в229599 0.3 101535
05:00+6в229681 0.3 101427
08:00+7всв2396100 0.9 101492
11:00+10в249195 0.6 1015272
14:00+12юв458390 2.5 1015738
17:00+13вюв556647 0.2 1014931
20:00+10вюв487618 0.2 1014624
22 апреля, чт
чт2223:00+8в378684 0.0 1016349
02:00+7в488910 0.0 1016297
05:00+6в499230 0.0 1015285
08:00+7в4118519 0.0 1016438
11:00+14вюв575549 0.0 10161278
14:00+17вюв564997 0.0 10161907
17:00+16в565489 0.0 10161749
20:00+13вюв36640 0.0 1017128
23 апреля, пт
пт2323:00+7всв22820 0.0 102018
02:00+6всв22890 0.0 102034
05:00+5всв22900 0.0 102032
08:00+7всв23840 0.0 102075
11:00+16вюв12540 0.0 1020567
14:00+20ю03410 0.0 10181666
17:00+21в23351 0.0 10172080
20:00+15вюв24650 0.0 101856
24 апреля, сб
сб2423:00+10всв23820 0.0 102047
02:00+8всв37850 0.0 1020112
05:00+7всв38800 0.0 1020129
08:00+9в49733 0.0 1020183
11:00+18вюв474644 0.0 1019852
14:00+22юв453480 0.0 10171805
17:00+20вюв5541100 0.0 10161439
20:00+15в5105786 0.0 1017481
25 апреля, вс
вс2523:00+10в387371 0.0 1019178
02:00+8в3887100 0.0 1018150
05:00+8в3879100 0.0 1017189
08:00+10в4107338 0.0 1017359
11:00+17вюв5946100 0.0 1015947
14:00+18в5644100 0.0 10151017
17:00+19вюв6942100 0.0 10131227
20:00+14вюв6135974 0.1 1012733